Location: Roswell
(33.3943°N, 104.5230°W)
Time: 15:59:14
(UTC+00:00)

BlueWalker 3 - Visible Passes

Search period start: 06 October 2024 00:00
Search period end: 16 October 2024 00:00
Orbit: 473 x 485 km, 53.2° (Epoch: 05 October)

Date Brightness Start Highest point End Pass type
(mag) Time Alt. Az. Time Alt. Az. Time Alt. Az.
06 Oct 3.9 10:50:54 23° NNE 10:50:54 23° NNE 10:52:25 10° NE visible
07 Oct 5.1 10:24:09 11° NE 10:24:09 11° NE 10:24:14 10° NE visible
07 Oct 4.2 11:58:26 10° NW 11:59:07 10° NNW 11:59:48 10° NNW visible
08 Oct 4.3 11:31:29 11° NNW 11:31:29 11° NNW 11:32:05 10° N visible
